This demonstration page uses our WeatherBlox Daily Observations layout. Learn more.

Left ArrowRight Arrow

Hourly Observations for April 7, 2019

Temp ( °F °C ) Dew Point ( °F °C ) Humidity (%) Winds ( mph kmh ) Pressure ( in mb ) Visibility ( mi km ) Precip ( " mm )
12:53 am 00:53 Mostly Cloudy 63 17.2 62 16.7 97 97 Calm 30.15 1021 10 16 0.00 0.00
1:07 am 01:07 Mostly Cloudy 65 18.3 64 17.8 97 97 Calm 30.15 1021 10 16 0.00 0.00
1:17 am 01:17 Cloudy with Thunderstorms 65 18.3 63 17.2 93 93 W 13 20 30.19 1022 10 16 0.00 0.00
1:29 am 01:29 Cloudy with Strong Thunderstorms 64 17.8 64 17.8 100 100 SSW 5 7 30.20 1023 2 3 0.16 4.06
1:34 am 01:34 Cloudy with Strong Thunderstorms 64 17.8 64 17.8 100 100 VRB 3 6 30.19 1022 2 3 0.20 5.08
1:42 am 01:42 Cloudy with Nearby Thunderstorms 64 17.8 63 17.2 96 96 Calm 30.19 1022 6 10 0.21 5.33
1:53 am 01:53 Cloudy with Nearby Thunderstorms 64 17.8 64 17.8 100 100 S 5 7 30.19 1022 10 16 0.21 5.33
2:53 am 02:53 Cloudy with Nearby Thunderstorms 64 17.8 63 17.2 96 96 SE 6 9 30.18 1022 6 10 0.14 3.56
3:15 am 03:15 Cloudy with Light Rain 63 17.2 63 17.2 100 100 SSE 8 13 30.19 1022 9 14 0.03 0.76
3:53 am 03:53 Cloudy with Light Rain 63 17.2 63 17.2 100 100 VRB 3 6 30.16 1021 10 16 0.08 2.03
4:53 am 04:53 Cloudy with Light Rain 62 16.7 62 16.7 100 100 SW 5 7 30.18 1022 7 11 0.08 2.03
5:53 am 05:53 Mostly Cloudy 62 16.7 62 16.7 100 100 E 5 7 30.15 1021 10 16 0.04 1.02
6:53 am 06:53 Mostly Cloudy 62 16.7 62 16.7 100 100 Calm 30.16 1022 8 13 0.00 0.00
7:41 am 07:41 Partly Cloudy 60 15.6 60 15.6 100 100 Calm 30.17 1022 10 16 0.00 0.00
7:51 am 07:51 Mostly Cloudy 61 16 61 16 100 100 Calm 30.17 1022 10 16 0.00 0.00
7:53 am 07:53 Mostly Cloudy 60 15.6 60 15.6 100 100 Calm 30.16 1021 10 16 0.00 0.00
8:01 am 08:01 Mostly Sunny 60 15.6 60 15.6 100 100 Calm 30.17 1022 7 11 0.00 0.00
8:53 am 08:53 Mostly Sunny 62 16.7 62 16.7 100 100 Calm 30.17 1022 7 11 0.00 0.00
9:53 am 09:53 Mostly Sunny 64 17.8 64 17.8 100 100 Calm 30.16 1021 10 16 0.00 0.00
10:53 am 10:53 Sunny 68 20 63 17.2 84 84 S 5 7 30.16 1021 10 16 0.00 0.00
11:53 am 11:53 Sunny 73 22.8 62 16.7 69 69 SE 10 17 30.14 1021 10 16 0.00 0.00
12:53 pm 12:53 Sunny 76 24.4 62 16.7 62 62 SSE 7 11 30.13 1020 10 16 0.00 0.00
1:53 pm 13:53 Sunny 78 25.6 61 16.1 56 56 SSE 9 15 30.13 1020 10 16 0.00 0.00
2:53 pm 14:53 Sunny 79 26.1 63 17.2 58 58 S 10 17 30.10 1019 10 16 0.00 0.00
3:53 pm 15:53 Partly Cloudy 79 26.1 62 16.7 56 56 SSE 9 15 30.07 1018 10 16 0.00 0.00
4:53 pm 16:53 Partly Cloudy 80 26.7 64 17.8 58 58 S 7 11 30.07 1018 10 16 0.00 0.00
5:53 pm 17:53 Mostly Sunny 80 26.7 62 16.7 54 54 S 9 15 30.06 1018 10 16 0.00 0.00
6:53 pm 18:53 Mostly Sunny 79 26.1 62 16.7 56 56 S 8 13 30.04 1017 10 16 0.00 0.00
7:53 pm 19:53 Partly Cloudy 77 25 63 17.2 62 62 S 6 9 30.05 1018 10 16 0.00 0.00
8:53 pm 20:53 Clear 74 23.3 64 17.8 71 71 Calm 30.07 1018 10 16 0.00 0.00
9:53 pm 21:53 Mostly Clear 68 20 65 18.3 90 90 Calm 30.09 1019 10 16 0.00 0.00
10:53 pm 22:53 Mostly Clear 68 20 65 18.3 90 90 WSW 3 6 30.08 1019 10 16 0.00 0.00
11:53 pm 23:53 Clear 66 18.9 64 17.8 93 93 Calm 30.07 1018 10 16 0.00 0.00

Powered by AerisWeather